When you browse on this site, cookies collect data to enhance your experience and personalize the content and advertising you see.
Visit our Privacy Policy to learn more. By continuing to use the site, you agree to this use of cookies and data.
  • In Deutschland
  • Länderverzeichnis
  • Für 7 Tage
  • Wassertemperatur
  • Satellitenkarten
  • Wetterkarte
  • Widgets
  • user-avatar
    Anmelden

    Stündliche Wetter Tibissa

    Heute, 25 Mai, Samstag

    Zeit Temperatur Niederschläge Wind Luftdruck Luftfeuchtigkeit
    00:00 +18°C° 1.1 mm 8 m/S 682 mmHg 67%
    01:00 +17°C° 1.1 mm 6 m/S 682 mmHg 71%
    02:00 +17°C° 1.9 mm 5 m/S 682 mmHg 73%
    03:00 +17°C° 1.9 mm 5 m/S 681 mmHg 76%
    04:00 +17°C° 1.9 mm 4 m/S 681 mmHg 79%
    05:00 +17°C° 0.5 mm 4 m/S 681 mmHg 75%
    06:00 +16°C° 0.5 mm 5 m/S 681 mmHg 70%
    07:00 +16°C° 0.5 mm 5 m/S 681 mmHg 66%
    08:00 +17°C° 0.9 mm 4 m/S 681 mmHg 70%
    09:00 +17°C° 0.9 mm 3 m/S 681 mmHg 73%
    10:00 +16°C° 0.9 mm 2 m/S 681 mmHg 77%
    11:00 +17°C° 0.6 mm 2 m/S 681 mmHg 76%
    12:00 +17°C° 0.6 mm 2 m/S 681 mmHg 76%
    13:00 +18°C° 0.6 mm 1 m/S 681 mmHg 75%
    14:00 +18°C° 1.3 mm 1 m/S 680 mmHg 78%
    15:00 +17°C° 1.3 mm 2 m/S 680 mmHg 80%
    16:00 +17°C° 1.3 mm 2 m/S 680 mmHg 82%
    17:00 +16°C° 3.4 mm 2 m/S 680 mmHg 84%
    18:00 +16°C° 3.4 mm 2 m/S 680 mmHg 87%
    19:00 +16°C° 3.4 mm 2 m/S 680 mmHg 89%
    20:00 +16°C° 2.1 mm 3 m/S 680 mmHg 90%
    21:00 +14°C° 2.1 mm 4 m/S 680 mmHg 91%
    22:00 +14°C° 2.1 mm 5 m/S 680 mmHg 91%
    23:00 +13°C° 0.7 mm 6 m/S 680 mmHg 91%

    Morgen, 26 Mai, Sonntag

    Zeit Temperatur Niederschläge Wind Luftdruck Luftfeuchtigkeit
    00:00 +13°C° 0.7 mm 6 m/S 680 mmHg 90%
    01:00 +11°C° 0.7 mm 7 m/S 680 mmHg 90%
    02:00 +11°C° 0.3 mm 7 m/S 679 mmHg 89%
    03:00 +11°C° 0.3 mm 7 m/S 679 mmHg 88%
    04:00 +11°C° 0.3 mm 6 m/S 679 mmHg 87%
    05:00 +11°C° 0.2 mm 7 m/S 679 mmHg 86%
    06:00 +11°C° 0.2 mm 7 m/S 679 mmHg 86%
    07:00 +10°C° 0.2 mm 7 m/S 679 mmHg 85%
    08:00 +11°C° 0 mm 8 m/S 679 mmHg 79%
    09:00 +12°C° 0 mm 8 m/S 679 mmHg 74%
    10:00 +13°C° 0 mm 9 m/S 680 mmHg 68%
    11:00 +15°C° 0 mm 9 m/S 680 mmHg 67%
    12:00 +14°C° 0 mm 10 m/S 680 mmHg 67%
    13:00 +14°C° 0 mm 11 m/S 680 mmHg 66%
    14:00 +14°C° 0.4 mm 11 m/S 680 mmHg 69%
    15:00 +13°C° 0.4 mm 11 m/S 680 mmHg 71%
    16:00 +12°C° 0.4 mm 11 m/S 679 mmHg 74%
    17:00 +12°C° 0.4 mm 10 m/S 680 mmHg 73%
    18:00 +12°C° 0.4 mm 10 m/S 680 mmHg 73%
    19:00 +13°C° 0.4 mm 9 m/S 680 mmHg 73%
    20:00 +12°C° 0.1 mm 10 m/S 680 mmHg 75%
    21:00 +12°C° 0.1 mm 10 m/S 680 mmHg 77%
    22:00 +11°C° 0.1 mm 11 m/S 680 mmHg 79%
    23:00 +11°C° 0 mm 11 m/S 680 mmHg 80%

    übermorgen, 27 Mai, Montag

    Zeit Temperatur Niederschläge Wind Luftdruck Luftfeuchtigkeit
    00:00 +11°C° 0 mm 11 m/S 680 mmHg 81%
    01:00 +11°C° 0 mm 11 m/S 680 mmHg 83%
    02:00 +9°C° 0 mm 10 m/S 679 mmHg 84%
    03:00 +10°C° 0 mm 9 m/S 679 mmHg 86%
    04:00 +8°C° 0 mm 9 m/S 679 mmHg 88%
    05:00 +10°C° 0 mm 9 m/S 679 mmHg 85%
    06:00 +9°C° 0 mm 10 m/S 679 mmHg 83%
    07:00 +9°C° 0 mm 10 m/S 679 mmHg 81%
    08:00 +11°C° 0 mm 10 m/S 680 mmHg 80%
    09:00 +11°C° 0 mm 10 m/S 680 mmHg 78%
    10:00 +12°C° 0 mm 10 m/S 681 mmHg 77%
    11:00 +13°C° 0 mm 10 m/S 681 mmHg 74%
    12:00 +14°C° 0 mm 10 m/S 681 mmHg 72%
    13:00 +15°C° 0 mm 9 m/S 682 mmHg 69%
    14:00 +16°C° 0 mm 9 m/S 682 mmHg 67%
    15:00 +16°C° 0 mm 9 m/S 682 mmHg 65%
    16:00 +16°C° 0 mm 9 m/S 682 mmHg 63%
    17:00 +16°C° 0 mm 9 m/S 682 mmHg 65%
    18:00 +16°C° 0 mm 9 m/S 682 mmHg 66%
    19:00 +15°C° 0 mm 8 m/S 682 mmHg 67%
    20:00 +14°C° 0 mm 7 m/S 682 mmHg 71%
    21:00 +14°C° 0 mm 6 m/S 683 mmHg 74%
    22:00 +13°C° 0 mm 4 m/S 683 mmHg 78%
    23:00 +13°C° 0 mm 4 m/S 683 mmHg 77%

    28 Mai, Dienstag

    Zeit Temperatur Niederschläge Wind Luftdruck Luftfeuchtigkeit
    00:00 +13°C° 0 mm 4 m/S 683 mmHg 77%
    01:00 +13°C° 0 mm 5 m/S 683 mmHg 76%
    02:00 +12°C° 0 mm 4 m/S 683 mmHg 76%
    03:00 +12°C° 0 mm 4 m/S 683 mmHg 75%
    04:00 +12°C° 0 mm 4 m/S 683 mmHg 75%
    05:00 +12°C° 0 mm 3 m/S 683 mmHg 72%
    06:00 +14°C° 0 mm 2 m/S 684 mmHg 69%
    07:00 +15°C° 0 mm 2 m/S 684 mmHg 65%
    08:00 +16°C° 0 mm 2 m/S 685 mmHg 59%
    09:00 +18°C° 0 mm 2 m/S 685 mmHg 53%
    10:00 +19°C° 0 mm 2 m/S 686 mmHg 47%
    11:00 +20°C° 0 mm 3 m/S 686 mmHg 43%
    12:00 +22°C° 0 mm 4 m/S 686 mmHg 38%
    13:00 +23°C° 0 mm 5 m/S 686 mmHg 34%
    14:00 +25°C° 0 mm 5 m/S 686 mmHg 33%
    15:00 +25°C° 0 mm 4 m/S 685 mmHg 32%
    16:00 +25°C° 0 mm 4 m/S 685 mmHg 31%
    17:00 +25°C° 0 mm 4 m/S 685 mmHg 33%
    18:00 +25°C° 0 mm 3 m/S 685 mmHg 35%
    19:00 +24°C° 0 mm 3 m/S 685 mmHg 37%
    20:00 +22°C° 0 mm 3 m/S 685 mmHg 41%
    21:00 +21°C° 0 mm 3 m/S 685 mmHg 45%
    22:00 +20°C° 0 mm 3 m/S 685 mmHg 48%
    23:00 +20°C° 0 mm 3 m/S 685 mmHg 49%

    29 Mai, Mittwoch

    Zeit Temperatur Niederschläge Wind Luftdruck Luftfeuchtigkeit
    00:00 +19°C° 0 mm 3 m/S 685 mmHg 50%
    01:00 +19°C° 0 mm 4 m/S 685 mmHg 51%
    02:00 +19°C° 0 mm 4 m/S 684 mmHg 51%
    03:00 +18°C° 0 mm 4 m/S 684 mmHg 51%
    04:00 +18°C° 0 mm 4 m/S 684 mmHg 51%
    05:00 +18°C° 0 mm 4 m/S 685 mmHg 50%
    06:00 +19°C° 0 mm 4 m/S 685 mmHg 50%
    07:00 +19°C° 0 mm 4 m/S 685 mmHg 50%
    08:00 +21°C° 0 mm 5 m/S 686 mmHg 45%
    09:00 +23°C° 0 mm 6 m/S 686 mmHg 40%
    10:00 +24°C° 0 mm 6 m/S 687 mmHg 36%
    11:00 +26°C° 0 mm 6 m/S 687 mmHg 33%
    12:00 +27°C° 0 mm 6 m/S 687 mmHg 31%
    13:00 +28°C° 0 mm 6 m/S 687 mmHg 28%
    14:00 +28°C° 0 mm 6 m/S 687 mmHg 29%
    15:00 +28°C° 0 mm 5 m/S 687 mmHg 30%
    16:00 +27°C° 0 mm 4 m/S 687 mmHg 31%
    17:00 +25°C° 0.8 mm 5 m/S 687 mmHg 43%
    18:00 +22°C° 0.8 mm 6 m/S 687 mmHg 55%
    19:00 +20°C° 0.8 mm 7 m/S 686 mmHg 68%
    20:00 +19°C° 0.6 mm 6 m/S 687 mmHg 74%
    21:00 +17°C° 0.6 mm 5 m/S 687 mmHg 80%
    22:00 +17°C° 0.6 mm 4 m/S 688 mmHg 87%
    23:00 +15°C° 0.1 mm 4 m/S 688 mmHg 87%

    30 Mai, Donnerstag

    Zeit Temperatur Niederschläge Wind Luftdruck Luftfeuchtigkeit
    00:00 +15°C° 0.1 mm 4 m/S 688 mmHg 87%
    01:00 +16°C° 0.1 mm 3 m/S 688 mmHg 87%
    02:00 +14°C° 0 mm 3 m/S 687 mmHg 87%
    03:00 +14°C° 0 mm 3 m/S 687 mmHg 88%
    04:00 +14°C° 0 mm 3 m/S 687 mmHg 88%
    05:00 +14°C° 0.1 mm 3 m/S 687 mmHg 87%
    06:00 +14°C° 0.1 mm 3 m/S 688 mmHg 86%
    07:00 +14°C° 0.1 mm 3 m/S 688 mmHg 84%
    08:00 +14°C° 0.2 mm 3 m/S 688 mmHg 80%
    09:00 +16°C° 0.2 mm 3 m/S 688 mmHg 75%
    10:00 +17°C° 0.2 mm 4 m/S 689 mmHg 71%
    11:00 +18°C° 0.1 mm 3 m/S 689 mmHg 66%
    12:00 +19°C° 0.1 mm 3 m/S 689 mmHg 61%
    13:00 +20°C° 0.1 mm 3 m/S 689 mmHg 56%
    14:00 +19°C° 0.1 mm 4 m/S 689 mmHg 56%
    15:00 +19°C° 0.1 mm 4 m/S 689 mmHg 57%
    16:00 +19°C° 0.1 mm 5 m/S 688 mmHg 57%
    17:00 +19°C° 0 mm 5 m/S 688 mmHg 58%
    18:00 +17°C° 0 mm 5 m/S 688 mmHg 59%
    19:00 +18°C° 0 mm 4 m/S 688 mmHg 60%
    20:00 +17°C° 0 mm 4 m/S 689 mmHg 63%
    21:00 +15°C° 0 mm 4 m/S 689 mmHg 66%
    22:00 +16°C° 0 mm 3 m/S 689 mmHg 69%
    23:00 +14°C° 0 mm 3 m/S 689 mmHg 73%
    Mehr zeigen